Flag for Bahrain Weather past 2 weeks in Manama, Bahrain

Now
79 °F

Sunny.


Feels Like: 80 °F
Forecast: 76 / 88 °F
Wind: 25 mph from Northwest

Location: Bahrain International Airport

Current Time: Apr 26, 2015 at 2:55:34 PM

Latest Report: Apr 26, 2015 at 2:00 PM


Visibility: 10 mi

Pressure: 29.92 "Hg

Humidity: 48%

Dew point: 57 °F

Location of ManamaLocation

Historic Weather in Manama — Graph

°F

Manama temperature yesterday

Maximum temperature yesterday: 77 °F (at 12:00 AM)
Minimum temperature yesterday: 73 °F (at 6:00 PM)
Average temperature yesterday: 76 °F

Past Weeks' High & Low Weather Summary

 TemperatureHumidityPressure
High106 °F (Apr 12, 3:00 PM)83% (Apr 16, 5:00 AM)30.04 "Hg (Apr 16, 5:00 AM)
Low70 °F (Apr 16, 3:00 AM)10% (Apr 12, 3:00 PM)29.71 "Hg (Apr 12, 4:00 PM)
Average81 °F46%29.88 "Hg
* Reported Apr 11 1:00 PM — Apr 26 1:00 PM, Manama, Weather by CustomWeather, © 2015

Note: Actual official high and low records may vary slightly from our data, if they occured in-between our weather recording intervals... More about our weather records

Advertising

Manama weather history for previous 24 hours

 ConditionsComfort  
Time TempWeatherWind HumidityBarometerVisibility
1:00 PM
Sun, Apr 26
79 °FSunny.28 mph45%29.92 "Hg10 mi
12:00 PM79 °FSunny.28 mph48%29.95 "Hg10 mi
11:00 AM79 °FSunny.26 mph48%29.95 "Hg10 mi
10:00 AM77 °FSunny.25 mph54%29.98 "Hg10 mi
9:00 AM77 °FSunny.25 mph54%29.98 "Hg10 mi
8:00 AM75 °FSunny.24 mph57%29.95 "Hg10 mi
7:00 AM75 °FSunny.23 mph57%29.95 "Hg10 mi
6:00 AM73 °FSunny.21 mph57%29.92 "Hg10 mi
5:00 AM73 °FClear.21 mph57%29.89 "Hg10 mi
4:00 AM73 °FClear.21 mph61%29.89 "Hg10 mi
3:00 AM73 °FClear.22 mph57%29.89 "Hg10 mi
2:00 AM75 °FClear.23 mph54%29.89 "Hg10 mi
1:00 AM75 °FClear.22 mph50%29.92 "Hg10 mi
12:00 AM75 °FClear.23 mph50%29.92 "Hg10 mi
11:00 PM
Sat, Apr 25
75 °FClear.22 mph50%29.92 "Hg10 mi
10:00 PM75 °FClear.23 mph50%29.92 "Hg10 mi
9:00 PM75 °FClear.23 mph47%29.92 "Hg10 mi
8:00 PM75 °FClear.23 mph47%29.92 "Hg10 mi
7:00 PM73 °FClear.28 mph47%29.92 "Hg10 mi
6:00 PM73 °FSunny.30 mph53%29.89 "Hg10 mi
5:00 PM75 °FSunny.29 mph50%29.89 "Hg10 mi
4:00 PM75 °FSunny.28 mph50%29.92 "Hg10 mi
3:00 PM77 °FSunny.31 mph47%29.92 "Hg10 mi
2:00 PM77 °FSunny.32 mph47%29.92 "Hg10 mi
Weather by CustomWeather, © 2015

See weather overviewHow to use our weather pages